When you browse on this site, cookies collect data to enhance your experience and personalize the content and advertising you see.
Visit our Privacy Policy to learn more. By continuing to use the site, you agree to this use of cookies and data.
  • In Sweden
  • List of Countries
  • For 7 days
  • Water Temperature
  • Satellite Maps
  • Weather Map
  • Weather Widgets
  • user-avatar
    Login

    Hourly Weather Ardahan

    Today, 16 December, Sunday

    Time Temperature Precipitation Wind Pressure Humidity
    00:00 -5°C° 0 mm 2 mps 609 mmHg 88%
    01:00 -6°C° 0 mm 2 mps 609 mmHg 88%
    02:00 -6°C° 0 mm 2 mps 609 mmHg 87%
    03:00 -6°C° 0 mm 2 mps 609 mmHg 87%
    04:00 -6°C° 0 mm 2 mps 609 mmHg 87%
    05:00 -6°C° 0 mm 2 mps 608 mmHg 86%
    06:00 -6°C° 0 mm 2 mps 608 mmHg 85%
    07:00 -5°C° 0 mm 2 mps 608 mmHg 84%
    08:00 -5°C° 0 mm 2 mps 609 mmHg 82%
    09:00 -4°C° 0 mm 2 mps 609 mmHg 81%
    10:00 -3°C° 0 mm 2 mps 609 mmHg 79%
    11:00 -1°C° 0 mm 2 mps 609 mmHg 77%
    12:00 +2°C° 0 mm 2 mps 609 mmHg 75%
    13:00 +2°C° 0 mm 2 mps 609 mmHg 75%
    14:00 +1°C° 0 mm 2 mps 609 mmHg 76%
    15:00 +2°C° 0 mm 1 mps 609 mmHg 76%
    16:00 -1°C° 0 mm 2 mps 608 mmHg 78%
    17:00 -2°C° 0 mm 2 mps 608 mmHg 80%
    18:00 -3°C° 0 mm 2 mps 608 mmHg 81%
    19:00 -3°C° 0 mm 2 mps 608 mmHg 82%
    20:00 -3°C° 0 mm 2 mps 608 mmHg 82%
    21:00 -3°C° 0 mm 2 mps 608 mmHg 82%
    22:00 -3°C° 0 mm 2 mps 608 mmHg 82%
    23:00 -4°C° 0 mm 2 mps 608 mmHg 82%

    Tomorrow, 17 December, Monday

    Time Temperature Precipitation Wind Pressure Humidity
    00:00 -4°C° 0 mm 2 mps 608 mmHg 82%
    01:00 -4°C° 0 mm 2 mps 607 mmHg 82%
    02:00 -5°C° 0 mm 2 mps 607 mmHg 82%
    03:00 -5°C° 0 mm 2 mps 607 mmHg 82%
    04:00 -5°C° 0 mm 2 mps 607 mmHg 82%
    05:00 -5°C° 0 mm 2 mps 606 mmHg 82%
    06:00 -6°C° 0 mm 2 mps 606 mmHg 82%
    07:00 -5°C° 0 mm 2 mps 606 mmHg 81%
    08:00 -5°C° 0 mm 2 mps 606 mmHg 80%
    09:00 -4°C° 0 mm 2 mps 607 mmHg 79%
    10:00 -3°C° 0 mm 2 mps 607 mmHg 77%
    11:00 -2°C° 0 mm 2 mps 606 mmHg 76%
    12:00 +1°C° 0 mm 2 mps 606 mmHg 75%
    13:00 +1°C° 0 mm 2 mps 606 mmHg 76%
    14:00 +1°C° 0 mm 2 mps 606 mmHg 77%
    15:00 +1°C° 0 mm 2 mps 606 mmHg 78%
    16:00 -1°C° 0 mm 2 mps 605 mmHg 79%
    17:00 -2°C° 0 mm 2 mps 605 mmHg 81%
    18:00 -3°C° 0 mm 2 mps 605 mmHg 83%
    19:00 -3°C° 0.1 mm 2 mps 605 mmHg 84%
    20:00 -1°C° 0.1 mm 1 mps 605 mmHg 85%
    21:00 -1°C° 0.1 mm 1 mps 605 mmHg 86%
    22:00 -1°C° 0.2 mm 1 mps 605 mmHg 87%
    23:00 -1°C° 0.2 mm 1 mps 605 mmHg 87%

    Day after tomorrow, 18 December, Tuesday

    Time Temperature Precipitation Wind Pressure Humidity
    00:00 -1°C° 0.2 mm 1 mps 605 mmHg 88%
    01:00 -1°C° 0.2 mm 1 mps 606 mmHg 89%
    02:00 -1°C° 0.2 mm 1 mps 606 mmHg 89%
    03:00 -1°C° 0.2 mm 1 mps 606 mmHg 90%
    04:00 -1°C° 0.1 mm 1 mps 606 mmHg 90%
    05:00 -2°C° 0.1 mm 1 mps 606 mmHg 90%
    06:00 -2°C° 0.1 mm 1 mps 606 mmHg 90%
    07:00 -2°C° 0 mm 1 mps 606 mmHg 90%
    08:00 -1°C° 0 mm 1 mps 606 mmHg 89%
    09:00 -1°C° 0 mm 1 mps 607 mmHg 88%
    10:00 0°C° 0 mm 1 mps 607 mmHg 85%
    11:00 +1°C° 0 mm 1 mps 607 mmHg 82%
    12:00 +2°C° 0 mm 1 mps 608 mmHg 80%
    13:00 +2°C° 0 mm 1 mps 608 mmHg 80%
    14:00 +2°C° 0 mm 1 mps 607 mmHg 80%
    15:00 +2°C° 0 mm 1 mps 607 mmHg 80%
    16:00 0°C° 0 mm 1 mps 607 mmHg 82%
    17:00 -1°C° 0 mm 1 mps 607 mmHg 84%
    18:00 -2°C° 0 mm 1 mps 607 mmHg 86%
    19:00 -2°C° 0 mm 1 mps 607 mmHg 86%
    20:00 -5°C° 0 mm 2 mps 607 mmHg 86%
    21:00 -5°C° 0 mm 2 mps 607 mmHg 86%
    22:00 -5°C° 0 mm 2 mps 607 mmHg 86%
    23:00 -5°C° 0 mm 2 mps 607 mmHg 86%

    19 December, Wednesday

    Time Temperature Precipitation Wind Pressure Humidity
    00:00 -6°C° 0 mm 2 mps 607 mmHg 86%
    01:00 -6°C° 0 mm 2 mps 607 mmHg 86%
    02:00 -6°C° 0 mm 2 mps 607 mmHg 86%
    03:00 -6°C° 0 mm 2 mps 607 mmHg 86%
    04:00 -6°C° 0 mm 2 mps 607 mmHg 87%
    05:00 -6°C° 0 mm 2 mps 607 mmHg 87%
    06:00 -6°C° 0 mm 2 mps 607 mmHg 87%
    07:00 -5°C° 0 mm 2 mps 607 mmHg 87%
    08:00 -5°C° 0 mm 2 mps 607 mmHg 86%
    09:00 -5°C° 0 mm 3 mps 607 mmHg 86%
    10:00 -4°C° 0 mm 3 mps 607 mmHg 85%
    11:00 -2°C° 0 mm 3 mps 607 mmHg 83%
    12:00 -1°C° 0 mm 3 mps 608 mmHg 81%
    13:00 0°C° 0 mm 3 mps 607 mmHg 82%
    14:00 0°C° 0 mm 3 mps 607 mmHg 82%
    15:00 0°C° 0 mm 3 mps 607 mmHg 83%
    16:00 -1°C° 0.1 mm 3 mps 607 mmHg 85%
    17:00 -2°C° 0.1 mm 2 mps 607 mmHg 87%
    18:00 -2°C° 0.1 mm 2 mps 606 mmHg 89%
    19:00 -2°C° 0.1 mm 2 mps 606 mmHg 89%
    20:00 -2°C° 0.1 mm 2 mps 606 mmHg 89%
    21:00 -2°C° 0.1 mm 2 mps 606 mmHg 90%
    22:00 -3°C° 0.1 mm 2 mps 606 mmHg 90%
    23:00 -3°C° 0.1 mm 2 mps 606 mmHg 89%

    20 December, Thursday

    Time Temperature Precipitation Wind Pressure Humidity
    00:00 -3°C° 0.1 mm 2 mps 606 mmHg 89%
    01:00 -3°C° 0.1 mm 2 mps 606 mmHg 90%
    02:00 -3°C° 0.1 mm 2 mps 606 mmHg 90%
    03:00 -3°C° 0.1 mm 2 mps 606 mmHg 90%
    04:00 -3°C° 0.1 mm 2 mps 605 mmHg 90%
    05:00 -3°C° 0.1 mm 2 mps 605 mmHg 90%
    06:00 -3°C° 0.1 mm 2 mps 605 mmHg 90%
    07:00 -3°C° 0.1 mm 2 mps 605 mmHg 90%
    08:00 -3°C° 0.1 mm 2 mps 606 mmHg 90%
    09:00 -3°C° 0.1 mm 2 mps 606 mmHg 89%
    10:00 -2°C° 0.2 mm 2 mps 606 mmHg 88%
    11:00 +1°C° 0.2 mm 1 mps 606 mmHg 87%
    12:00 +1°C° 0.2 mm 1 mps 606 mmHg 86%
    13:00 +1°C° 0.2 mm 1 mps 606 mmHg 87%
    14:00 +1°C° 0.2 mm 1 mps 605 mmHg 89%
    15:00 +1°C° 0.2 mm 1 mps 605 mmHg 90%
    16:00 +1°C° 0.2 mm 1 mps 605 mmHg 91%
    17:00 0°C° 0.2 mm 1 mps 606 mmHg 93%
    18:00 0°C° 0.2 mm 1 mps 606 mmHg 95%
    19:00 0°C° 0.3 mm 1 mps 606 mmHg 95%
    20:00 -1°C° 0.3 mm 1 mps 606 mmHg 95%
    21:00 -1°C° 0.3 mm 1 mps 607 mmHg 95%
    22:00 -1°C° 0.4 mm 1 mps 607 mmHg 95%
    23:00 -1°C° 0.4 mm 1 mps 607 mmHg 96%

    21 December, Friday

    Time Temperature Precipitation Wind Pressure Humidity
    00:00 -3°C° 0.4 mm 2 mps 607 mmHg 96%
    01:00 -3°C° 0.3 mm 2 mps 607 mmHg 96%
    02:00 -3°C° 0.3 mm 2 mps 607 mmHg 96%
    03:00 -3°C° 0.3 mm 2 mps 608 mmHg 95%
    04:00 -4°C° 0.2 mm 2 mps 608 mmHg 95%
    05:00 -2°C° 0.2 mm 1 mps 608 mmHg 95%
    06:00 -2°C° 0.2 mm 1 mps 608 mmHg 95%
    07:00 -2°C° 0.2 mm 1 mps 608 mmHg 94%
    08:00 -2°C° 0.2 mm 1 mps 609 mmHg 94%
    09:00 -2°C° 0.2 mm 1 mps 609 mmHg 93%
    10:00 -1°C° 0.2 mm 1 mps 609 mmHg 91%
    11:00 -3°C° 0.2 mm 2 mps 609 mmHg 90%
    12:00 -2°C° 0.2 mm 2 mps 609 mmHg 88%
    13:00 -2°C° 0.2 mm 2 mps 609 mmHg 88%
    14:00 -2°C° 0.2 mm 2 mps 609 mmHg 88%
    15:00 -2°C° 0.2 mm 2 mps 609 mmHg 88%
    16:00 -3°C° 0.1 mm 2 mps 609 mmHg 90%
    17:00 -2°C° 0.1 mm 1 mps 609 mmHg 92%
    18:00 -3°C° 0.1 mm 1 mps 609 mmHg 94%
    19:00 -3°C° 0.1 mm 1 mps 609 mmHg 94%
    20:00 -4°C° 0.1 mm 1 mps 609 mmHg 94%
    21:00 -4°C° 0.1 mm 1 mps 609 mmHg 94%
    22:00 -4°C° 0 mm 1 mps 608 mmHg 94%
    23:00 -6°C° 0 mm 1 mps 608 mmHg 94%
    Show more